COSMOS 2574 (58658 NORAD) Tracking and Keplerian Element Data

This shows tracking and keplerian element data for the satellite.

Feedback or suggestion? Click here.




ElementValue
Catalog58658
NameCOSMOS 2574
Epoch Orbit266
Epoch Day13.22088988
Epoch Year2024
RAAN271.9137
Inclination96.7557
Eccentricity0.0005858
Argument of Perigee347.1028
Mean Anonmoly13.0086
Mean Motion15.72318098
Decay Rate0.00029555
L11 58658U 23209A 24013.22088988 .00029555 00000+0 22389-3 0 9995
L22 58658 96.7557 271.9137 0005858 347.1028 13.0086 15.72318098 2660



Live tracking and technical data element details for COSMOS 2574 (NORAD 58658). COSMOS 2574 can be tracked NOW for your location showing map with azimuth and elevation plus other details from your city location.







IsCatalogInMostPopularTable: catalog: 58658, numindb: 22
Update: records affected: 1



GetName: 58658 COSMOS 2574

Hit Count: updated at: Wed, 17 Apr 2024 01:37:08 GMT